This is the latest recevied weather packets stored in our database for station/object KB9ZGZ. If no packets are shown the sender has not sent any weather packets the latest 10 day(s).
| Time | Temp. | Humidity | Pressure | Rain* | Wind** | Luminosity | Snow |
|---|---|---|---|---|---|---|---|
| 1777419935 | 16.67° C | 72% | 1007.9 hPa | 0.25 mm | - | - | - |
| 1777419038 | 16.67° C | 76% | 1009.5 hPa | 0.25 mm | - | - | - |
| 1777418134 | 16.11° C | 75% | 1010.1 hPa | 0.25 mm | - | - | - |
| 1777417234 | 16.11° C | 77% | 1009.9 hPa | 0.25 mm | - | - | - |
| 1777416333 | 16.67° C | 74% | 1009.6 hPa | 0.25 mm | - | - | - |
| 1777415435 | 16.67° C | 74% | 1009.6 hPa | 0.25 mm | - | - | - |
| 1777414528 | 16.11° C | 74% | 1009.7 hPa | 0.25 mm | - | - | - |
| 1777413629 | 16.11° C | 73% | 1010.1 hPa | 0.25 mm | - | - | - |
| 1777412736 | 16.11° C | 72% | 1010.2 hPa | 0.25 mm | - | - | - |
| 1777411857 | 16.67° C | 71% | 1010.2 hPa | 0.25 mm | - | - | - |
| 1777410956 | 17.22° C | 70% | 1010.7 hPa | 0.25 mm | - | - | - |
| 1777410052 | 17.22° C | 72% | 1010.7 hPa | 0.25 mm | - | - | - |
| 1777409158 | 17.22° C | 73% | 1010.4 hPa | 0.25 mm | - | - | - |
| 1777408262 | 16.67° C | 73% | 1010.5 hPa | 0.25 mm | - | - | - |
| 1777407349 | 16.67° C | 73% | 1010.6 hPa | 0.25 mm | - | - | - |
| 1777406455 | 16.67° C | 72% | 1011.1 hPa | 0.25 mm | - | - | - |
| 1777405548 | 16.67° C | 71% | 1011 hPa | 0.25 mm | - | - | - |
| 1777404642 | 17.22° C | 71% | 1010.6 hPa | 0.25 mm | - | - | - |
| 1777403743 | 16.67° C | 73% | 1011 hPa | 0.25 mm | - | - | - |
| 1777402838 | 16.67° C | 72% | 1010.6 hPa | 0.25 mm | - | - | - |
| 1777401946 | 16.67° C | 78% | 1010.6 hPa | 0.25 mm | - | - | - |
| 1777401035 | 16.67° C | 75% | 1011 hPa | 0.25 mm | - | - | - |
| 1777400138 | 16.11° C | 74% | 1011.1 hPa | 0.25 mm | - | - | - |
| 1777399228 | 16.11° C | 80% | 1011.6 hPa | 0 mm | - | - | - |
| 1777398327 | 15.56° C | 76% | 1012.2 hPa | 0 mm | - | - | - |
* Rain since midnight (hover to see other rain measurements)
** Current wind speed in m/s (hover to see current wind gust speed)